Flag for Germany Weather past 2 weeks in Heidenheim an der Brenz, Baden-Württemberg, Germany

Now
51 °F

Clear.


Feels Like: 51 °F
Forecast: 51 / 67 °F
Wind: 3 mph from South

Location: Stoetten

Current Time: Apr 25, 2015 at 4:13:19 AM

Latest Report: Apr 25, 2015 at 3:00 AM


Visibility: 16 mi

Pressure: 29.90 "Hg

Humidity: 50%

Dew point: 33 °F

Location of Heidenheim an der BrenzLocation

Historic Weather in Heidenheim an der Brenz — Graph

°F

Heidenheim an der Brenz temperature yesterday

Maximum temperature yesterday: 62 °F (at 6:00 PM)
Minimum temperature yesterday: 39 °F (at 4:00 AM)
Average temperature yesterday: 50 °F

Past Weeks' High & Low Weather Summary

 TemperatureHumidityPressure
High70 °F (Apr 15, 5:00 PM)97% (Apr 17, 7:00 AM)30.46 "Hg (Apr 17, 7:00 AM)
Low32 °F (Apr 19, 5:00 AM)24% (Apr 15, 5:00 PM)29.87 "Hg (Apr 17, 3:00 PM)
Average51 °F56%30.19 "Hg
* Reported Apr 10 3:00 AM — Apr 25 3:00 AM, Heidenheim an der Brenz, Weather by CustomWeather, © 2015

Note: Actual official high and low records may vary slightly from our data, if they occured in-between our weather recording intervals... More about our weather records

Advertising

Heidenheim an der Brenz weather history for previous 24 hours

 ConditionsComfort  
Time TempWeatherWind HumidityBarometerVisibility
3:00 AM
Sat, Apr 25
51 °FClear.3 mph50%29.90 "Hg16 mi
1:00 AM53 °FClear.3 mph46%29.92 "Hg14 mi
12:00 AM53 °FPassing clouds.3 mph39%29.93 "Hg19 mi
11:00 PM
Fri, Apr 24
55 °FClear.2 mph35%29.92 "Hg22 mi
10:00 PM55 °FPassing clouds.2 mph37%29.92 "Hg22 mi
9:00 PM56 °FClear.2 mph36%29.91 "Hg25 mi
8:00 PM58 °FSunny.2 mph35%29.89 "Hg28 mi
7:00 PM62 °FSunny.3 mph35%29.88 "Hg31 mi
6:00 PM62 °FSunny.5 mph34%29.89 "Hg22 mi
5:00 PM62 °FPassing clouds.5 mph33%29.89 "Hg34 mi
4:00 PM61 °FPassing clouds.5 mph38%29.90 "Hg31 mi
3:00 PM60 °FSunny.3 mph40%29.92 "Hg31 mi
2:00 PM58 °FSunny.3 mph40%29.94 "Hg28 mi
1:00 PM56 °FPassing clouds.2 mph41%29.97 "Hg13 mi
12:00 PM54 °FSunny.2 mph43%29.99 "Hg25 mi
11:00 AM51 °FSunny.3 mph50%30.01 "Hg25 mi
10:00 AM48 °FSunny.3 mph52%30.03 "Hg22 mi
9:00 AM46 °FSunny.3 mph58%30.04 "Hg22 mi
8:00 AM45 °FSunny.3 mph54%30.03 "Hg22 mi
7:00 AM41 °FSunny.3 mph68%30.05 "Hg22 mi
6:00 AM39 °FClear.3 mph71%30.05 "Hg22 mi
5:00 AM40 °FClear.3 mph69%30.05 "Hg11 mi
4:00 AM39 °FClear.3 mph72%30.06 "Hg11 mi
Weather by CustomWeather, © 2015

See weather overviewHow to use our weather pages